Погода в Броднице

Польша     53°15′59″N   19°24′53″E
темп.,
°C
ветер,
м/с
пор.,
м/с
влажн.,
%
обл.,
%
осадки,
мм/ч
давл.,
гПа
погр.,
м
2 марта, вт
вт201:00+1з410950 0.0 1033235
04:00+1зюз410950 0.0 1031217
07:00+1з510930 0.0 1031242
10:00+5зсз58749 0.0 1032406
13:00+9зсз58584 0.0 1032676
16:00+9сз476026 0.0 1031687
19:00+4ссз348610 0.0 103289
22:00+2с23940 0.0 103235
3 марта, ср
ср301:00+1св11930 0.0 103322
04:00+1ю118935 0.0 103122
07:00+1ю229127 0.0 103122
10:00+5ююз34750 0.0 1030365
13:00+8юз35590 0.0 1027543
16:00+8юз36590 0.0 1024394
19:00+4юз34780 0.0 102283
22:00+4юз49880 0.0 1019189
4 марта, чт
чт401:00+3зюз411910 0.0 1017228
04:00+2зюз511950 0.0 1014280
07:00+2з5109826 0.0 1013353
10:00+3з5890100 0.0 1012543
13:00+4з5779100 0.0 1011754
16:00+3зсз5777100 0.0 1009821
19:00+2сз4790100 0.1 1010539
22:000ссв5890100 0.1 1011602
5 марта, пт
пт501:00−1ссв4880100 0.2 1013637
04:00−2с587997 0.0 1014365
07:00−2с366248 0.0 1016346
10:00+1сз57530 0.0 10181108
13:00+3ссз794518 0.4 10191768
16:00+2ссз684541 0.1 10201632
19:00−2ссз236121 0.1 102149
22:00−2зсз246334 0.0 1023143
6 марта, сб
сб601:00−2ссз247337 0.0 1023171
04:00−3сз358776 0.4 1024316
07:00−2сз487349 0.4 1026546
10:00+1сз47430 0.0 10261515
13:00+3з7103828 0.0 10251924
16:00+3з6114254 0.0 10221637
19:000зюз7155077 0.0 1020767
22:00+2з81589100 0.1 1018889